GFSNGP_500_spd_159.txt.gz
Wind_Speed
52 46 52 54 49 48 51 52 52 51 53 47 49 50 45 42 44 43 44 46 46 50 47 50 43 32 33 44 47 46 44 40 38 39 45 43 52 51 48 39 38 37 38 39
55 56 57 56 51 53 52 45 47 43 44 41 45 48 43 45 43 43 45 46 46 47 51 55 40 42 44 44 46 42 44 40 41 47 43 53 53 49 39 35 36 37 38 39
55 52 53 57 48 55 55 56 56 59 57 55 57 60 62 56 57 57 56 56 57 57 57 58 57 56 52 48 43 37 36 39 47 48 49 46 46 40 36 35 36 37 38 40
45 47 51 52 49 53 50 48 47 55 57 60 54 49 49 58 54 48 45 41 41 40 40 43 46 46 41 36 35 38 43 42 43 46 45 44 41 39 37 36 37 41 39 40
49 45 42 41 43 40 46 50 48 47 47 42 40 40 38 38 37 33 32 34 35 36 36 37 37 36 33 37 38 38 41 43 44 44 44 44 42 38 39 38 39 39 40 44
53 52 49 42 38 40 40 44 42 44 42 33 30 28 29 26 25 26 28 30 31 33 36 39 41 42 43 46 47 47 46 44 42 41 39 37 37 39 38 35 38 40 43 41
52 52 49 35 34 40 38 35 35 35 30 24 19 16 14 13 16 18 21 23 25 28 31 35 40 43 46 45 43 41 40 40 38 34 35 37 39 38 36 40 40 40 40 39
51 53 53 37 35 36 27 30 32 31 26 19 16 12 13 15 15 18 22 24 26 27 32 36 37 38 39 37 35 32 33 34 36 37 37 37 37 37 34 36 36 39 38 37
46 50 46 37 34 31 29 27 30 27 26 21 17 14 15 14 17 20 26 30 33 32 36 37 37 38 38 36 37 38 37 36 35 35 34 34 33 33 35 35 37 38 36 36
33 31 30 28 30 31 27 28 33 28 27 32 27 27 22 22 25 26 29 29 35 40 42 38 36 35 37 38 36 30 29 30 29 30 31 33 36 37 36 36 36 37 37 35
32 32 30 36 30 32 29 34 35 31 30 33 38 35 33 31 32 36 36 38 38 43 44 33 32 29 27 19 22 26 30 32 31 31 32 34 36 34 38 35 36 36 35 33
28 36 37 33 35 33 33 33 30 30 27 30 35 38 40 39 40 41 42 45 48 46 42 34 30 21 19 21 22 24 27 30 31 31 33 34 36 38 36 35 36 33 32 31
41 39 40 34 35 36 36 32 30 30 33 33 34 37 38 38 41 44 48 49 49 44 38 34 28 23 23 24 24 24 27 28 28 30 33 35 35 34 34 33 33 31 30 29
36 43 41 39 33 34 34 33 33 31 34 33 35 36 38 45 48 51 54 51 45 40 33 33 32 29 25 28 28 28 30 31 29 30 31 32 33 33 32 31 30 30 29 28
37 36 36 37 33 32 34 32 30 28 32 34 36 42 48 53 56 55 48 41 36 35 32 30 29 33 30 31 33 33 32 30 28 29 31 31 31 31 30 29 28 28 28 28
39 32 34 32 29 25 24 25 25 28 33 37 43 48 51 50 47 41 34 28 28 27 28 26 27 30 34 35 36 33 30 28 26 27 28 29 28 28 28 29 28 28 28 28
32 23 30 28 28 26 27 26 25 30 34 38 38 38 38 32 27 22 20 19 19 20 22 26 28 31 34 34 30 27 28 27 27 27 27 26 26 26 27 26 25 25 27 28
26 26 24 25 28 27 23 24 29 32 35 35 34 30 25 22 18 15 13 13 14 16 20 24 28 30 28 25 26 27 25 24 24 24 24 24 24 25 26 24 25 27 27 28
22 19 19 18 20 21 23 28 31 34 33 31 30 27 24 20 17 16 15 15 16 19 21 24 27 27 26 25 25 24 23 21 20 19 19 20 21 22 24 25 26 25 25 26
13 18 22 23 23 28 26 29 35 32 30 29 28 23 19 18 18 19 20 20 20 20 16 13 11 10 9 10 11 13 15 18 20 21 21 22 22 22 22 23 22 22 22 23
17 17 18 23 30 30 31 39 31 30 29 26 27 24 22 22 23 23 21 15 11 8 7 6 6 6 6 7 7 8 10 11 13 14 15 16 17 18 19 21 22 23 25 26
24 26 30 32 34 36 41 30 25 26 23 24 26 26 26 24 21 18 13 10 8 8 8 9 9 9 9 10 11 12 13 14 15 16 18 19 21 22 23 24 26 27 28 29
40 39 41 36 37 33 27 24 26 24 22 21 21 21 20 17 15 13 12 10 10 10 10 11 11 12 12 13 14 15 16 17 18 19 20 21 22 23 24 25 26 27 27 28
25 29 26 24 23 23 24 25 24 23 21 19 18 17 15 15 14 14 13 11 12 12 14 15 15 15 16 16 17 18 19 20 21 21 22 23 24 25 26 26 27 28 28 28
22 19 19 19 20 21 21 19 18 17 16 16 16 16 16 16 16 16 15 14 15 15 17 18 19 18 19 19 20 21 22 22 22 22 23 24 26 27 28 28 28 28 27 26
19 19 18 17 17 17 14 12 13 14 15 17 17 17 18 18 17 17 18 18 19 20 21 22 22 22 22 22 23 23 23 23 24 24 26 27 27 28 27 27 27 27 27 29
20 20 18 17 17 17 15 14 14 15 16 18 18 19 19 19 20 20 21 22 22 23 24 24 24 24 25 25 25 25 24 25 26 26 27 27 27 28 28 29 30 30 31 31

GFSNGP_500_spd_162.txt.gz
Wind_Speed
51 49 50 50 50 48 45 38 41 42 47 50 48 51 52 54 56 55 57 56 50 50 49 49 50 47 47 45 45 45 40 37 52 58 52 55 44 44 50 47 47 47 47 47
50 48 50 48 44 45 52 53 60 61 61 52 51 48 48 49 51 49 45 46 47 52 53 53 58 59 53 51 48 40 41 40 57 53 44 39 40 42 35 42 41 32 37 33
49 46 48 47 46 47 50 50 50 56 54 54 59 56 52 59 60 64 65 64 63 55 41 45 48 44 45 46 46 48 51 39 42 39 48 51 48 43 46 37 44 36 35 35
46 43 47 41 39 43 46 45 43 45 43 41 45 41 42 43 50 55 53 43 44 40 38 39 43 42 41 41 42 40 37 43 50 52 47 47 51 47 46 44 36 37 37 37
56 55 51 46 37 39 44 41 37 40 35 35 35 38 42 46 49 44 36 37 37 36 36 37 39 39 40 39 38 38 37 38 40 42 43 44 44 44 42 39 37 41 37 38
59 61 60 49 42 44 42 41 35 41 41 38 35 37 40 45 34 30 31 31 30 29 29 31 33 37 39 40 42 43 44 46 46 47 47 46 45 40 38 38 39 38 38 38
52 54 52 46 43 42 45 47 37 33 32 33 37 39 38 31 25 21 18 16 19 23 26 29 31 32 34 37 40 41 41 41 41 42 40 37 37 36 33 35 36 38 40 40
51 52 55 45 45 52 45 39 42 36 32 34 33 33 28 24 22 20 17 20 19 19 26 28 29 30 33 34 36 41 37 34 34 34 35 35 36 37 37 34 35 36 36 36
55 56 47 40 45 42 44 45 37 33 32 31 26 27 29 26 23 22 22 24 23 24 22 27 31 36 41 40 34 35 39 37 34 36 36 32 30 31 34 34 31 32 33 34
51 44 45 39 41 35 41 36 31 30 29 28 24 26 32 31 28 28 29 30 33 32 35 37 37 39 45 42 33 32 32 33 36 29 24 25 26 33 31 32 33 35 34 34
47 39 39 40 28 47 32 29 28 32 31 31 29 27 34 36 41 40 41 40 42 43 41 41 43 44 49 40 29 27 25 23 22 23 25 26 29 30 31 31 33 33 37 37
47 40 41 27 35 37 30 29 27 31 34 34 34 31 34 35 37 42 46 46 44 45 46 46 48 49 45 33 28 23 20 19 19 21 24 28 29 29 31 33 35 39 40 36
36 41 51 44 51 42 30 27 31 35 35 34 32 32 36 37 35 37 42 45 48 51 53 53 53 47 39 30 27 24 20 22 22 22 25 28 27 33 37 39 38 35 34 33
49 51 35 43 23 37 34 32 34 36 35 36 33 31 36 33 39 38 44 50 55 59 57 52 43 38 32 28 27 29 25 26 26 27 29 30 29 32 34 34 34 33 32 31
38 54 38 38 30 35 35 35 37 32 34 31 30 32 31 36 41 47 47 49 47 45 40 34 30 28 27 27 28 31 32 30 30 31 32 30 28 28 31 31 31 31 30 28
31 31 39 42 33 33 43 35 32 34 31 27 29 29 34 39 44 46 44 40 34 29 26 24 23 22 23 23 24 29 33 34 33 31 30 28 27 26 27 27 27 28 27 27
28 32 33 35 34 37 34 32 35 33 30 26 27 31 37 40 39 37 34 27 22 18 15 13 13 16 19 22 24 25 28 30 25 26 26 26 25 25 25 24 23 24 25 25
36 37 37 35 33 31 33 35 35 32 27 27 29 35 37 36 34 32 29 24 21 18 15 13 14 16 19 22 25 27 26 26 26 24 23 23 23 23 23 23 23 23 24 26
36 36 40 33 30 28 30 30 28 27 26 29 32 36 38 33 30 28 24 19 18 18 19 18 19 20 22 24 26 25 23 23 22 21 20 19 19 20 22 23 25 25 25 26
30 31 30 23 23 25 24 25 25 26 25 30 35 37 31 30 27 24 22 21 22 23 23 21 18 14 11 9 9 9 8 9 10 12 13 15 16 17 18 19 20 20 19 21
4 6 10 14 20 23 26 24 25 29 29 34 38 33 31 29 26 25 24 23 23 20 15 11 8 7 7 7 8 8 9 9 10 11 12 13 14 15 17 19 20 21 23 23
14 16 19 21 21 21 22 25 29 33 36 39 33 30 28 26 25 25 24 21 17 13 12 10 9 9 9 10 11 12 12 13 14 15 16 16 18 19 20 21 22 23 24 25
26 25 26 28 30 31 37 38 41 40 39 33 30 28 25 23 22 21 19 16 14 14 13 11 10 11 11 13 14 15 16 16 17 18 19 20 21 22 22 23 24 25 26 26
35 40 38 39 38 41 41 38 35 32 30 30 28 27 23 20 17 17 16 16 15 15 14 14 14 14 15 16 17 18 19 19 20 21 22 22 23 23 24 24 26 26 27 27
16 17 18 20 22 22 22 23 21 21 23 23 22 22 19 17 17 17 17 16 15 16 17 16 17 18 18 20 21 21 22 22 23 23 23 23 24 25 25 26 27 27 27 27
15 16 15 15 18 19 20 19 19 19 19 19 19 18 17 17 17 18 17 17 17 18 19 19 20 21 22 23 24 24 25 25 25 25 25 25 26 26 26 27 27 28 28 29
21 21 21 22 21 18 18 18 17 16 16 16 16 16 17 18 18 19 19 20 20 21 22 22 23 23 24 25 25 26 26 26 26 26 26 27 27 27 27 28 30 31 32 32

GFSNGP_500_spd_165.txt.gz
Wind_Speed
54 54 55 56 53 54 56 53 55 46 46 45 46 48 46 43 45 48 50 55 58 58 58 59 58 59 53 50 47 46 44 45 47 43 42 46 47 43 50 43 40 42 39 37
53 51 53 54 49 49 49 47 49 48 52 47 47 53 58 59 60 58 57 55 54 55 55 56 57 56 57 59 59 56 53 47 44 45 45 50 49 55 51 46 43 38 35 42
48 45 45 48 48 41 42 41 42 45 44 45 50 53 54 52 51 53 53 48 47 47 50 50 47 45 46 44 43 44 45 46 48 49 48 52 52 56 47 48 42 38 33 32
50 45 48 42 31 33 38 34 40 42 37 37 40 41 43 45 46 44 44 45 44 46 47 47 46 44 40 41 41 40 40 40 40 41 44 49 30 33 36 37 35 30 34 29
45 50 55 53 33 36 43 47 42 41 44 38 36 38 37 44 39 33 34 36 37 38 41 40 37 35 35 35 36 38 40 41 43 41 39 43 41 41 40 41 41 40 37 33
58 63 59 45 31 48 50 51 38 43 39 36 34 39 45 38 32 32 34 37 36 35 32 28 27 29 28 28 30 32 35 39 41 41 41 44 44 42 40 36 32 30 35 34
59 64 66 52 45 52 55 48 41 37 39 41 44 43 32 30 29 28 29 30 27 24 23 27 28 29 27 26 26 30 36 38 39 41 39 36 35 34 35 33 32 30 32 32
51 55 56 41 45 49 45 42 39 39 41 38 37 34 31 30 29 27 26 26 29 29 29 26 28 27 27 30 34 39 40 42 39 40 36 33 28 29 30 31 30 32 35 31
37 35 40 48 49 50 49 40 43 43 46 45 42 33 32 32 28 26 27 31 33 32 28 31 29 29 34 36 39 41 43 48 40 35 33 30 35 29 35 27 32 30 32 36
67 61 58 51 48 45 47 47 46 47 49 39 31 29 30 28 27 29 34 34 34 32 36 38 40 40 45 45 43 43 44 48 37 29 26 28 31 33 27 25 30 30 32 33
62 63 49 43 47 51 45 42 44 49 38 28 22 19 25 28 29 32 36 37 40 43 47 48 49 50 51 48 48 49 47 47 30 26 25 25 24 23 24 27 31 32 31 29
34 47 55 50 54 42 38 44 43 35 32 25 20 21 24 28 31 33 36 36 37 39 41 44 48 50 51 52 52 50 44 38 30 25 22 21 20 19 21 26 31 31 29 31
50 34 48 44 44 37 33 42 43 26 28 27 25 22 26 32 32 33 33 36 40 39 42 46 51 56 59 57 53 44 36 29 27 21 19 18 19 19 22 24 28 30 32 33
51 53 36 46 49 43 35 32 28 30 33 29 24 26 31 32 35 34 37 35 36 43 48 52 54 52 46 39 34 30 27 26 24 25 24 24 26 25 24 25 26 30 32 32
53 33 55 51 41 56 37 32 28 29 27 27 26 28 29 34 37 36 33 36 41 44 43 41 38 31 25 23 22 20 21 24 25 27 27 28 29 28 25 24 23 23 24 27
57 23 26 31 35 40 49 47 38 28 30 30 30 28 33 37 35 33 34 37 38 37 35 30 25 22 20 18 15 15 18 20 25 28 30 30 28 25 24 24 23 23 24 24
61 28 11 22 32 32 32 34 31 28 32 33 29 28 31 33 33 34 38 39 35 32 31 26 20 17 10 8 10 14 17 18 20 24 26 26 25 23 22 21 22 22 22 21
38 19 16 15 15 18 27 26 28 29 30 26 30 34 31 30 31 35 39 34 31 28 24 20 18 16 14 12 13 16 18 20 21 23 23 23 22 20 21 19 20 20 21 21
31 35 24 22 17 18 20 25 27 28 28 32 36 37 32 31 31 32 31 30 29 25 23 21 22 21 20 19 19 19 17 15 14 14 14 14 15 16 17 18 20 23 24 23
18 25 27 25 25 21 26 30 32 35 35 35 38 30 29 28 33 37 31 31 27 25 24 24 22 18 13 10 8 6 6 6 7 7 7 8 9 10 11 13 13 14 16 17
11 15 19 21 23 26 32 35 35 33 33 28 28 32 32 33 35 34 31 27 26 26 25 21 15 10 8 7 8 7 8 8 9 9 10 10 12 13 14 14 15 16 18 20
6 8 10 13 15 19 18 21 27 29 29 28 26 28 32 35 35 31 30 26 27 27 21 16 12 11 10 11 11 10 10 10 12 12 13 14 15 16 17 18 18 19 19 20
20 18 19 18 20 21 24 27 29 30 30 32 34 35 37 37 35 31 28 26 28 22 17 15 13 13 13 13 13 13 13 14 15 16 17 17 18 19 19 20 21 21 21 21
23 25 25 28 30 31 31 32 33 34 38 40 43 42 39 32 31 29 26 26 22 18 17 17 15 15 15 15 15 16 17 18 18 19 20 20 21 21 21 21 22 22 23 23
12 11 14 15 21 28 34 38 39 37 38 34 31 31 30 29 29 26 24 21 17 18 18 17 17 17 17 17 18 19 20 21 22 22 23 23 23 23 22 23 24 24 24 24
15 17 18 19 17 15 16 18 21 25 25 23 23 23 24 24 23 21 20 18 17 18 18 18 18 19 19 20 21 22 22 23 23 24 24 25 25 24 24 25 25 25 26 27
21 22 22 22 21 20 20 21 19 18 18 16 15 16 19 20 19 19 19 18 18 20 20 20 21 21 21 23 24 24 24 25 25 25 25 25 25 25 26 26 26 27 28 29

GFSNGP_500_spd_171.txt.gz
Wind_Speed
66 64 64 63 61 54 56 55 55 51 50 47 49 51 53 55 55 51 45 50 54 52 53 56 54 53 55 58 59 58 56 54 54 52 51 51 52 52 53 52 52 52 53 52
59 63 66 56 53 56 59 60 59 51 50 43 50 53 53 51 50 52 52 53 52 54 56 58 57 57 58 55 48 46 48 51 52 54 53 51 52 54 55 55 53 51 49 45
62 59 64 61 62 60 54 52 51 53 50 49 47 46 44 42 43 44 48 50 48 47 48 50 46 42 41 43 44 45 47 49 50 49 45 41 42 45 45 45 45 43 49 45
58 53 59 62 51 49 49 49 48 47 41 39 42 38 38 39 41 38 37 40 42 42 38 38 39 40 39 35 38 43 46 44 39 33 32 27 20 22 24 27 33 39 40 41
53 55 58 58 66 47 44 43 42 43 40 38 36 38 38 39 39 37 36 36 34 36 37 38 35 33 33 34 34 40 39 33 31 30 25 22 24 29 29 30 31 33 36 37
55 54 54 55 44 47 45 48 43 44 43 42 41 40 38 37 42 40 37 37 37 37 37 36 32 32 32 31 31 30 31 34 30 30 30 32 35 37 36 35 38 38 35 36
58 57 58 58 53 49 52 49 45 45 45 51 54 51 49 47 46 46 41 40 39 37 35 32 29 28 28 31 31 31 33 32 30 32 34 36 39 39 39 42 42 45 36 34
60 61 62 60 55 58 60 61 57 59 58 55 56 54 50 48 48 45 41 40 37 36 35 34 31 31 31 31 32 34 35 34 36 39 40 43 45 45 44 44 44 43 35 31
65 64 60 60 64 62 63 64 64 62 61 60 59 55 54 53 49 43 42 37 36 37 37 33 33 34 31 33 35 39 40 42 44 47 49 52 54 53 50 45 44 44 33 32
69 63 66 61 64 64 65 66 67 68 64 62 60 61 57 46 43 42 38 39 39 40 42 34 35 32 31 35 40 43 45 47 51 53 54 54 53 50 47 43 42 43 32 32
62 66 68 65 63 68 67 65 71 73 71 65 57 52 56 55 45 43 38 38 39 39 35 34 36 32 32 37 43 44 45 48 51 53 55 56 54 52 49 46 44 36 34 36
57 54 60 65 64 64 68 68 61 60 58 59 62 59 49 44 40 44 43 38 45 37 36 35 35 33 32 36 36 39 42 47 55 57 56 54 52 47 41 37 31 30 32 29
38 41 53 61 64 66 66 65 68 71 64 56 52 60 49 38 43 41 41 38 31 34 35 36 34 33 31 34 35 40 48 52 52 52 44 40 35 33 28 22 25 25 23 21
39 44 48 51 55 57 65 66 59 58 59 64 58 45 47 38 45 41 43 33 33 36 34 34 33 30 31 32 39 47 47 46 45 34 29 23 23 20 14 22 22 20 20 22
36 41 37 35 45 46 43 51 56 42 44 49 61 58 53 55 54 44 39 31 32 36 33 32 27 26 29 35 42 39 38 37 29 24 20 16 16 18 16 23 24 25 27 28
39 39 43 35 34 34 35 33 39 31 39 45 49 53 59 58 54 48 41 31 33 31 30 24 23 26 31 36 37 34 30 28 21 15 12 13 18 22 23 25 28 29 30 29
26 25 27 21 20 23 12 22 35 22 20 29 31 34 37 38 47 42 33 30 31 30 23 25 28 29 34 36 35 32 29 26 20 15 16 15 16 21 26 29 29 28 27 24
11 10 11 12 12 5 12 14 12 19 16 28 29 38 41 39 29 31 33 30 31 29 24 28 26 27 31 36 35 31 31 28 24 23 23 23 22 22 24 26 26 23 22 22
10 5 2 10 6 12 15 11 15 15 14 21 28 35 33 29 32 30 29 31 30 26 26 27 29 30 34 38 34 31 30 24 22 22 21 19 17 15 15 13 12 12 14 15
9 7 1 4 7 5 5 10 17 14 16 17 17 21 25 29 30 29 32 31 31 26 28 29 29 29 32 36 31 30 23 17 13 11 11 10 9 9 9 10 10 11 12 14
10 8 3 6 11 10 9 9 7 16 24 23 19 22 24 23 20 28 30 28 26 28 27 25 29 28 33 35 30 28 20 16 13 11 11 11 11 10 11 12 13 14 15 16
16 13 10 10 18 19 17 15 17 18 21 21 18 19 22 24 28 28 28 27 26 24 22 27 29 30 34 33 30 26 20 18 16 14 13 13 14 14 15 16 17 18 18 19
18 18 15 15 15 16 15 14 16 20 26 30 30 30 29 30 29 27 27 24 22 22 27 31 33 36 36 31 29 27 23 20 18 17 16 17 17 18 19 20 21 23 23 23
18 14 9 7 6 15 22 21 18 18 19 18 22 26 24 24 24 26 26 27 30 32 37 34 37 40 37 32 29 27 23 22 20 19 19 20 21 22 23 23 24 25 26 25
12 14 11 6 8 7 8 11 13 18 25 25 25 28 26 28 30 31 32 33 34 36 37 40 43 40 33 31 29 27 24 23 23 22 22 23 24 24 25 25 26 26 26 27
14 13 12 13 13 14 18 16 15 17 19 22 29 36 38 38 38 38 38 38 40 43 44 39 33 32 31 28 28 27 25 25 24 24 25 25 25 25 26 26 27 27 27 28
19 18 19 20 20 20 19 19 18 17 18 22 23 23 25 31 37 40 41 41 41 38 34 32 31 31 28 27 27 27 27 27 26 26 26 27 27 27 27 27 27 28 29 29

GFSNGP_500_spd_174.txt.gz
Wind_Speed
55 58 60 63 64 63 63 64 66 64 59 56 58 54 52 49 49 52 56 53 51 49 48 47 48 47 48 50 52 56 60 62 61 61 61 60 59 55 52 50 49 49 51 51
57 59 66 69 71 73 72 67 67 65 60 61 59 51 50 47 47 50 56 55 52 46 41 42 44 46 48 50 52 53 55 57 56 51 51 52 53 53 51 47 45 45 46 47
67 66 68 61 53 58 68 71 70 67 60 52 53 54 49 53 56 55 53 52 51 49 45 44 46 48 50 52 51 47 44 46 45 43 44 45 46 43 39 37 37 33 34 36
70 75 82 78 67 56 54 52 49 50 49 41 46 48 49 48 50 50 42 42 39 42 44 43 45 48 46 42 40 39 36 37 36 38 40 39 38 35 32 29 30 31 33 34
71 76 78 80 73 69 67 60 57 59 55 48 53 53 48 50 40 37 38 38 44 43 45 40 41 40 39 37 34 33 34 33 33 34 34 35 36 32 28 30 34 35 34 32
61 59 63 74 79 74 51 55 58 54 46 46 49 50 40 43 44 43 42 41 42 44 43 41 40 40 37 32 31 31 32 30 30 33 35 35 33 31 31 32 34 35 35 36
61 64 65 59 56 62 65 60 51 46 42 43 47 45 42 44 49 47 47 41 44 44 38 41 42 38 34 31 30 33 32 28 30 33 36 36 35 35 38 41 43 45 45 41
65 68 70 65 62 61 60 58 59 57 53 47 47 46 44 42 45 52 49 49 48 44 39 43 44 39 34 33 33 33 30 32 34 37 39 41 42 43 43 47 49 48 46 43
65 69 69 67 65 62 63 63 54 58 60 56 53 55 53 53 54 54 53 53 50 50 43 43 42 37 36 33 31 31 31 34 37 39 43 45 46 49 50 51 51 50 47 43
69 69 68 68 63 64 65 66 65 68 71 70 65 60 61 58 56 56 57 53 50 51 43 41 40 39 38 38 34 32 33 37 38 41 47 52 52 53 53 54 54 52 49 45
53 56 56 58 61 62 66 64 68 68 68 71 71 68 64 60 59 58 58 52 54 52 44 40 39 36 38 34 34 37 35 39 40 44 49 52 51 53 56 55 53 52 48 43
53 49 55 60 60 61 65 69 71 73 73 70 68 67 68 62 62 62 60 56 52 48 44 39 38 39 36 35 36 35 37 40 41 44 46 51 52 51 50 48 45 42 37 33
43 48 54 58 56 61 64 65 66 68 69 69 70 66 65 66 65 65 61 57 48 43 39 40 40 46 35 35 34 36 40 40 42 46 43 45 44 36 35 33 27 22 19 19
36 43 45 40 44 34 43 48 48 53 58 62 66 68 67 56 53 48 49 50 46 35 27 32 44 34 30 33 31 37 36 38 40 37 37 38 31 28 23 16 11 10 17 20
35 42 44 43 43 35 37 38 39 41 37 41 50 65 62 62 63 48 51 55 39 34 36 32 37 32 30 28 34 35 36 38 35 33 32 30 22 18 16 13 14 13 18 20
33 36 36 37 41 39 35 36 38 36 32 33 34 41 53 56 63 61 51 43 35 34 31 34 36 33 26 27 34 35 36 35 32 30 28 24 18 14 14 18 19 19 21 24
28 23 22 19 23 22 22 21 12 5 8 14 18 27 39 45 53 58 49 53 38 35 30 34 35 33 23 28 33 32 33 31 31 29 30 25 23 19 18 21 25 26 26 28
23 19 15 6 4 10 6 8 9 11 12 18 21 20 28 28 39 46 42 45 39 36 34 34 35 28 24 29 33 34 36 29 28 31 29 24 25 25 25 24 24 25 26 27
16 15 13 4 3 6 7 7 9 8 10 8 6 17 21 22 29 32 45 42 37 42 39 32 31 26 27 30 32 34 33 25 28 29 25 20 20 21 21 19 16 14 13 13
18 15 11 12 10 1 5 5 9 12 6 3 6 9 17 23 37 46 50 48 40 32 29 29 28 29 28 29 32 32 30 26 28 25 20 16 14 13 12 11 11 11 12 12
24 16 13 10 7 11 13 12 7 6 10 8 5 12 22 24 29 33 32 31 29 30 28 30 32 29 29 32 29 25 25 27 27 23 19 16 14 13 12 12 12 13 14 15
26 22 21 16 11 13 16 13 13 11 7 6 11 13 15 18 20 22 25 26 27 28 31 33 31 33 32 28 30 27 24 27 27 23 21 19 17 15 15 16 16 16 17 18
23 20 18 16 14 16 15 14 13 14 13 14 19 17 18 19 24 26 25 26 29 31 32 33 32 31 29 30 29 28 28 29 28 24 23 22 20 19 19 19 19 20 21 22
18 18 17 11 11 12 15 18 17 16 14 12 15 22 28 28 29 31 30 30 30 30 30 30 30 33 34 32 30 30 30 32 29 26 25 25 23 21 22 22 23 24 24 25
12 14 10 9 9 7 7 6 9 13 17 19 20 19 20 24 28 29 32 36 36 33 33 34 38 36 32 31 31 34 36 35 30 27 26 26 25 24 24 24 25 26 26 27
18 17 17 15 15 14 15 15 14 13 14 17 20 21 24 26 25 29 28 28 31 33 37 39 36 35 34 36 39 39 35 32 28 28 27 27 26 26 26 26 27 27 28 28
25 21 21 21 21 20 20 20 20 19 18 17 19 22 24 24 26 31 36 40 41 42 42 42 40 41 40 37 35 33 31 29 27 28 28 27 27 27 27 27 28 28 28 29

GFSNGP_500_spd_177.txt.gz
Wind_Speed
61 61 62 62 61 58 57 57 60 59 57 52 55 55 53 53 51 48 52 55 50 50 53 56 50 50 49 37 36 39 45 45 46 47 50 54 57 56 49 50 45 42 32 29
62 62 63 63 61 63 60 61 62 57 56 55 59 62 59 51 55 52 55 57 52 50 48 49 51 50 51 45 37 37 40 44 47 50 51 51 52 53 51 51 43 41 37 31
63 65 64 61 60 58 59 53 53 55 58 61 61 63 68 63 61 62 63 57 48 47 43 40 46 43 34 38 43 41 43 46 50 46 44 46 46 45 44 41 38 38 37 33
58 57 63 64 57 61 64 64 66 58 48 53 51 56 62 57 56 50 46 43 41 40 41 43 45 38 38 39 43 45 45 45 43 42 41 38 39 40 37 36 36 35 32 31
61 67 66 65 61 61 63 63 69 72 74 70 73 61 51 50 46 42 41 43 47 46 43 45 43 39 40 43 45 43 40 41 42 37 33 36 34 32 33 34 33 32 33 34
50 47 51 49 56 60 61 67 64 67 72 74 74 62 58 60 54 47 41 35 39 42 42 41 40 40 43 42 40 38 41 42 37 34 34 34 31 33 34 35 35 37 35 37
46 50 55 56 45 45 57 58 60 61 62 60 65 57 48 47 42 44 37 40 43 44 45 44 40 39 36 34 35 37 41 39 36 35 36 32 34 34 37 41 40 41 43 44
53 53 56 58 60 62 60 64 63 64 61 61 58 51 43 43 44 47 46 44 46 50 49 45 40 36 35 38 36 37 40 38 37 38 35 33 35 36 39 43 44 44 46 48
59 58 54 48 57 61 65 67 57 44 52 65 60 55 48 44 46 51 49 47 44 52 51 48 41 40 38 36 37 39 39 38 36 37 36 36 36 41 43 46 49 51 53 52
59 59 59 62 49 47 55 67 72 72 70 64 56 55 53 52 48 51 56 53 46 46 51 50 46 41 37 36 36 39 38 36 39 38 37 38 43 45 48 52 55 57 56 56
49 49 54 58 61 66 67 62 61 69 73 72 68 66 63 53 63 60 57 55 55 54 50 46 42 37 37 35 37 36 36 38 38 37 37 43 46 48 50 53 56 58 58 56
48 48 53 53 50 55 60 60 63 67 62 63 66 64 69 70 69 64 65 59 57 58 48 46 45 41 38 36 34 34 38 38 37 35 40 43 44 47 51 51 51 49 44 42
38 34 40 47 50 49 55 58 58 58 58 60 68 69 67 66 66 64 63 55 51 48 49 47 46 44 39 35 35 38 37 38 34 39 39 41 43 46 41 41 35 33 30 20
29 33 31 33 37 37 43 43 39 36 41 46 53 59 64 72 69 64 57 57 61 55 53 54 51 46 46 37 35 37 41 32 37 39 38 39 44 38 33 29 24 20 14 9
29 31 31 33 40 40 44 45 42 36 35 33 32 33 41 54 62 65 71 66 55 47 62 55 54 45 40 34 32 32 28 32 39 35 34 39 39 31 28 24 18 13 14 15
24 27 30 35 36 34 34 33 31 28 33 34 33 38 42 47 48 56 61 67 68 55 53 53 46 41 34 32 30 32 28 32 35 32 34 37 35 29 26 23 20 16 18 19
24 21 25 25 25 23 17 13 12 17 19 14 14 17 19 24 28 44 51 62 63 64 51 50 43 39 36 38 35 34 29 32 32 32 33 33 30 29 24 25 23 21 22 23
22 21 15 16 17 13 7 3 1 5 12 19 17 14 24 30 29 25 33 49 57 66 50 47 40 35 29 37 35 30 29 31 33 31 29 30 28 25 23 25 26 25 24 23
18 22 19 18 12 11 12 9 8 11 16 17 17 18 21 18 19 23 27 34 40 52 49 44 35 32 31 38 32 29 29 30 33 31 29 31 25 22 22 22 20 18 17 15
21 24 22 18 15 12 13 14 13 15 15 9 9 12 16 15 8 16 22 22 31 39 48 40 37 35 35 36 31 29 28 28 30 25 31 29 23 20 20 19 18 15 15 14
20 25 25 24 20 16 14 14 12 12 13 14 13 9 10 3 4 7 20 28 31 43 41 32 33 34 36 31 29 27 27 28 29 27 30 26 23 19 20 20 18 16 16 16
21 22 21 21 22 19 17 17 16 14 13 12 12 10 3 6 17 24 25 36 38 33 32 35 34 34 29 29 30 30 28 29 30 31 32 26 23 21 22 23 21 19 18 17
25 25 20 18 19 20 21 20 16 15 12 11 12 9 6 5 10 13 15 20 23 29 32 34 32 30 32 32 31 30 29 30 32 32 33 27 25 24 25 26 24 22 21 20
18 18 18 17 17 16 15 14 11 13 14 12 11 11 12 13 11 19 22 22 24 28 31 33 31 31 34 33 32 32 31 32 33 33 33 29 26 26 27 28 26 25 23 23
16 17 18 18 16 16 14 13 13 11 13 13 14 15 14 16 21 24 25 26 28 27 27 29 33 35 35 34 33 31 33 34 34 34 35 34 29 28 29 29 28 27 26 25
21 20 17 19 19 20 18 17 17 18 18 17 17 17 16 17 18 20 23 27 31 34 35 36 35 37 35 35 33 35 36 36 34 37 39 34 31 29 30 29 28 28 27 27
28 26 24 25 23 21 20 20 21 22 21 22 22 20 20 21 20 21 22 25 27 29 32 34 33 35 37 37 38 40 39 38 39 39 34 32 30 30 30 29 28 28 29 28

GFSNGP_500_spd_183.txt.gz
Wind_Speed
61 55 58 60 64 68 66 68 71 72 68 68 61 61 60 61 58 55 59 57 59 66 62 51 55 58 56 50 48 46 47 50 50 40 36 36 37 36 36 36 34 34 38 39
65 65 66 71 72 76 72 70 71 73 74 64 65 67 66 65 59 62 57 60 60 48 58 59 50 47 56 52 50 52 57 46 52 37 37 43 37 36 35 35 36 37 37 38
73 68 72 74 76 75 71 67 67 71 72 69 70 69 64 64 65 61 62 64 66 63 55 54 54 49 45 62 62 62 60 52 48 38 38 37 34 34 34 37 37 37 38 37
72 71 74 74 68 65 68 70 70 73 71 73 75 70 68 68 68 63 66 65 64 63 64 73 67 67 75 75 48 52 54 49 36 33 33 34 29 32 36 35 34 34 36 36
67 70 68 65 62 63 65 65 67 70 75 74 69 66 60 61 63 60 59 65 55 62 60 68 64 66 55 49 39 46 34 36 31 29 32 29 27 29 37 36 32 35 35 36
61 61 63 63 65 63 63 66 67 64 63 62 60 57 60 62 63 60 57 60 64 71 71 69 69 63 63 59 44 31 41 35 36 36 35 28 28 28 30 32 35 36 35 38
67 68 69 58 56 51 51 53 57 59 59 57 54 53 53 55 57 61 60 61 65 64 64 67 69 58 45 42 36 39 37 37 37 34 32 29 28 29 32 34 35 36 37 39
54 54 56 56 57 57 58 59 62 63 63 63 62 62 60 60 59 56 53 54 58 61 64 64 65 54 44 45 43 40 38 36 35 36 32 30 31 31 32 34 35 38 37 38
50 52 55 57 57 57 58 62 67 68 67 69 69 68 67 70 71 71 71 72 61 60 63 62 60 52 47 48 47 44 41 42 38 37 33 32 33 32 32 34 36 38 38 37
53 54 57 60 59 62 63 69 71 73 73 74 76 76 76 76 76 74 71 71 68 70 66 62 60 53 51 50 46 49 47 43 40 39 37 36 35 35 33 36 37 40 37 35
61 62 59 60 61 62 64 62 61 61 60 61 64 68 73 77 75 74 73 74 73 73 62 64 61 56 54 52 50 52 48 43 40 40 43 39 35 34 35 37 40 40 35 36
53 49 50 58 56 54 53 53 51 50 49 49 50 53 53 56 57 72 79 75 76 76 65 63 61 58 57 53 52 52 50 47 45 40 39 36 34 36 37 39 40 36 35 39
43 44 47 48 46 39 32 34 41 45 47 50 51 51 52 52 49 50 55 60 72 76 73 65 65 60 62 55 52 53 53 52 44 41 42 34 33 36 39 40 36 34 36 40
41 34 40 38 29 33 36 36 36 37 41 46 50 52 53 55 53 50 48 49 57 65 76 70 57 59 57 56 58 56 57 53 47 45 36 31 34 36 41 39 37 34 37 40
31 35 29 24 25 29 28 24 26 31 33 32 36 34 37 37 34 37 41 42 42 49 55 71 62 58 54 58 63 59 58 50 44 45 36 31 33 38 41 36 34 35 36 40
28 28 24 21 23 25 26 28 32 31 31 30 30 27 28 27 25 29 35 39 38 35 38 51 61 66 67 59 64 63 61 47 43 47 32 34 37 37 38 33 32 34 35 38
26 23 20 14 16 22 27 28 27 29 24 24 25 22 22 23 23 26 30 35 39 40 41 42 48 63 69 69 55 64 56 61 45 50 34 36 38 35 34 32 31 33 35 38
24 22 20 15 17 23 24 25 26 26 23 21 20 20 21 24 29 30 28 32 40 38 35 36 40 48 54 59 62 53 56 65 57 44 32 42 37 33 34 32 31 31 35 41
20 21 21 21 22 20 22 19 17 20 21 21 21 21 25 25 15 20 30 28 26 29 36 42 37 39 46 54 57 53 59 56 56 43 37 40 35 34 34 32 33 30 34 35
20 19 19 21 21 22 23 21 21 20 21 23 24 26 25 28 22 25 28 27 25 26 24 34 36 43 38 47 59 56 55 51 59 35 45 36 35 35 34 34 29 32 33 31
17 17 19 22 25 26 25 24 23 24 26 28 25 26 25 27 26 25 30 21 19 16 17 23 30 40 40 43 49 48 45 46 45 43 43 36 36 36 39 31 31 32 31 29
15 17 18 21 22 23 25 26 25 26 28 28 29 26 24 25 27 24 24 20 11 16 16 9 23 31 36 38 45 41 42 50 50 42 43 35 35 40 38 32 31 33 30 30
17 18 19 21 23 24 24 23 24 25 26 25 24 23 22 22 22 22 13 18 7 9 5 9 18 27 30 30 37 35 39 46 43 43 37 36 37 37 34 33 31 31 30 30
12 15 18 19 20 20 22 22 23 23 25 25 23 19 19 19 19 16 14 10 14 11 6 12 12 13 21 25 29 31 36 41 32 31 37 37 35 36 36 35 32 32 32 31
18 18 19 23 25 24 21 23 24 24 24 26 23 20 19 17 14 14 11 11 3 7 10 15 13 16 21 28 33 33 29 28 29 33 37 35 36 35 35 34 34 34 35 33
21 23 22 20 19 20 24 23 23 25 25 24 20 19 18 17 16 13 11 10 14 8 12 11 11 14 17 19 19 23 30 32 32 35 37 35 35 36 35 36 37 36 38 36
27 27 27 27 27 25 25 25 24 24 23 22 21 20 19 18 18 17 15 11 11 14 16 17 18 20 22 23 26 28 29 29 31 34 36 38 38 36 38 40 39 39 38 38

GFSNGP_500_spd_189.txt.gz
Wind_Speed
58 60 58 44 40 42 47 52 52 49 50 51 49 50 54 55 55 59 63 63 59 56 61 60 61 60 56 59 55 55 54 56 64 63 60 58 66 56 62 53 48 50 49 51
46 56 57 60 62 59 57 52 49 46 58 51 54 57 58 61 61 62 62 66 71 65 64 58 55 59 62 61 62 61 55 56 58 57 51 60 55 50 54 51 49 53 49 55
53 62 57 63 57 55 57 57 53 54 53 53 52 56 60 61 67 72 72 70 69 69 70 66 66 63 61 62 60 62 55 57 59 57 67 64 68 49 52 54 59 54 50 44
54 61 64 60 57 57 55 56 56 56 56 55 58 62 65 70 73 71 70 71 73 71 67 63 63 65 65 62 63 62 57 58 55 62 58 70 46 37 34 33 42 43 45 39
55 55 62 62 60 59 60 62 63 66 69 66 63 64 72 72 70 69 66 67 68 69 62 72 67 69 68 67 64 61 62 63 63 62 56 68 47 38 36 40 52 48 39 38
57 59 60 59 60 59 62 66 69 72 70 69 70 70 73 72 67 64 65 69 65 59 71 74 69 69 68 68 67 65 64 65 68 67 67 67 54 40 50 46 48 48 37 39
59 57 60 62 62 65 67 69 67 65 65 65 68 72 72 71 71 74 77 78 78 79 78 73 70 67 66 65 64 66 69 69 71 70 66 58 59 34 48 39 48 50 43 35
62 62 64 62 61 63 65 67 66 67 71 75 78 74 71 65 60 61 63 65 68 71 70 70 71 73 71 68 65 65 63 62 70 71 65 55 43 40 51 61 51 50 38 36
60 59 60 61 61 63 70 69 68 71 74 73 71 63 58 61 64 65 66 69 72 75 77 76 77 81 83 77 73 72 72 63 65 64 66 54 45 48 51 43 48 48 44 45
59 61 62 66 69 69 62 59 58 59 61 62 59 60 64 65 67 69 71 74 79 82 84 85 83 83 85 82 86 80 73 71 69 60 52 53 51 51 54 57 46 51 46 42
65 63 62 60 55 54 56 60 61 60 59 58 62 62 62 64 66 70 68 61 60 61 63 66 67 64 59 58 59 64 79 81 75 64 57 53 54 57 57 51 50 42 41 37
54 51 55 56 60 60 59 56 55 56 56 55 58 60 61 60 55 49 45 43 50 55 58 57 57 55 54 51 48 46 51 66 74 64 60 61 52 55 54 50 52 49 38 39
57 57 58 59 61 61 58 56 53 51 52 54 54 55 48 46 41 41 48 52 51 50 46 46 47 46 42 43 50 44 42 45 54 66 60 58 54 55 53 51 54 46 40 40
58 56 57 55 51 49 49 45 45 47 47 41 39 35 37 36 38 41 45 47 41 44 44 42 36 34 34 37 41 45 44 43 44 53 59 58 54 55 50 48 47 52 52 40
50 50 45 41 41 40 43 43 40 36 33 33 34 34 36 37 40 42 36 34 37 40 40 38 36 30 29 31 31 37 40 43 44 47 50 58 52 52 50 48 48 52 47 39
43 41 40 37 38 41 40 34 33 31 27 27 30 31 33 29 27 29 33 34 34 34 34 32 32 33 34 33 34 34 37 39 42 46 43 56 53 53 52 49 53 46 53 42
37 36 36 40 38 33 34 30 30 26 22 24 24 23 25 20 23 25 29 32 36 37 37 35 39 43 49 46 43 35 38 34 40 43 40 53 55 51 53 49 54 52 47 45
40 39 33 31 31 29 32 33 26 24 23 23 22 23 23 25 27 29 29 31 34 36 38 39 42 43 35 33 32 28 33 31 38 38 40 43 46 51 53 47 52 51 54 48
32 28 26 27 31 33 29 25 24 26 27 26 24 25 28 32 32 31 34 36 37 38 40 41 46 38 32 32 33 29 29 29 37 34 36 41 44 49 50 49 48 53 50 39
24 21 23 29 31 27 24 22 25 28 29 28 28 29 31 33 33 32 33 34 36 38 40 43 45 37 40 40 33 27 27 26 37 34 35 40 40 45 47 42 51 56 46 35
21 20 23 25 26 24 22 22 21 23 24 25 25 25 26 27 31 32 33 33 32 36 35 44 36 43 28 20 23 22 24 24 33 36 36 36 37 41 45 54 47 48 39 41
16 17 22 25 26 23 20 22 23 25 26 26 28 28 28 28 30 32 33 34 31 32 31 38 32 32 23 7 10 17 17 21 28 36 37 34 30 35 60 57 59 44 41 47
18 18 17 18 21 23 23 24 25 26 27 29 29 29 29 29 30 31 29 25 25 25 24 28 26 20 11 2 13 18 10 16 26 38 34 31 31 29 44 58 56 49 52 46
15 16 18 20 23 23 23 22 22 22 23 25 27 27 25 26 27 26 28 22 19 19 19 21 22 14 7 8 12 11 12 18 23 29 30 34 32 21 32 35 51 46 42 33
19 20 22 21 20 20 19 20 21 22 24 27 28 27 27 25 21 21 22 20 18 17 15 15 18 20 9 7 11 12 14 15 17 25 32 30 26 22 25 42 49 45 37 31
19 20 21 22 25 24 24 25 26 27 28 30 30 28 28 26 23 22 21 20 18 17 13 10 11 13 13 4 8 14 10 17 19 13 15 19 21 27 35 43 43 40 36 35
20 19 19 19 19 23 25 26 26 26 25 27 29 28 27 25 24 21 20 17 16 16 15 9 8 7 5 7 3 8 17 16 21 17 15 15 20 22 28 35 39 39 37 35

GFSNGP_500_spd_195.txt.gz
Wind_Speed
51 52 47 43 43 47 48 46 50 49 53 55 55 57 59 61 62 64 62 62 61 63 63 59 62 60 63 68 70 72 67 65 69 71 72 74 76 61 60 64 66 65 65 65
53 51 55 50 45 43 45 47 51 53 56 55 56 58 59 61 64 66 62 59 61 64 59 60 69 74 76 75 75 75 76 76 75 77 80 81 76 68 62 65 66 63 66 58
54 53 55 56 51 52 49 45 50 51 46 45 51 55 61 66 70 68 64 63 69 65 65 67 71 71 72 76 77 79 82 83 82 86 86 91 86 73 66 69 58 47 55 51
58 58 63 56 51 53 56 53 49 54 51 58 56 56 64 68 68 67 74 73 74 73 70 79 77 76 75 77 79 81 80 81 86 89 90 83 76 73 71 73 68 60 59 55
46 50 65 62 52 50 57 55 51 50 59 63 68 65 62 77 80 77 73 75 67 58 69 73 76 79 80 79 81 80 81 83 82 81 80 76 71 77 73 69 71 67 64 59
53 57 61 54 48 54 53 65 51 50 57 66 64 71 71 75 70 66 68 72 71 75 77 81 83 82 83 81 82 82 82 81 81 82 80 77 77 78 83 86 82 70 58 57
50 57 61 55 58 58 62 54 45 48 56 64 67 66 70 74 79 80 78 79 80 79 82 84 82 81 77 77 76 78 78 78 79 81 83 83 82 80 78 75 67 57 58 55
46 53 55 48 55 62 61 62 65 67 65 66 72 73 72 71 75 77 78 80 83 87 88 85 81 79 78 75 76 80 83 85 87 89 91 92 92 91 89 83 74 64 54 55
51 51 51 53 53 58 61 64 66 65 65 66 69 73 74 75 77 79 81 80 81 80 78 77 74 73 75 80 81 84 86 86 88 92 89 81 77 73 71 72 80 70 61 63
61 60 61 58 56 57 57 60 64 66 68 70 70 71 72 73 72 73 73 73 76 76 74 72 74 76 78 81 82 82 85 88 73 60 58 58 62 64 62 59 56 61 66 63
57 59 63 62 61 61 62 64 66 66 68 70 72 73 70 70 70 70 71 73 74 75 75 72 74 77 76 76 79 80 69 51 49 50 47 48 54 58 51 49 50 53 60 68
60 58 61 61 63 64 65 66 69 71 72 70 69 69 69 69 69 71 73 72 72 73 74 74 72 69 73 74 67 55 49 48 48 47 47 47 49 48 45 44 48 50 54 69
59 63 66 68 67 62 61 61 63 65 65 65 65 66 66 66 66 67 69 72 74 72 68 65 68 69 61 55 48 44 46 44 45 47 47 47 48 48 41 38 42 46 52 54
64 62 62 63 60 59 61 65 65 64 62 60 60 62 64 65 67 71 71 70 66 63 64 68 61 49 49 44 43 43 43 41 43 43 46 48 46 42 33 30 35 42 48 50
59 60 60 60 60 61 61 60 60 62 63 65 66 66 68 69 68 68 66 62 62 62 63 47 39 42 44 43 43 44 45 44 48 47 50 52 48 41 32 30 32 40 45 51
62 63 63 63 63 64 63 63 61 62 62 62 64 64 65 64 59 58 58 58 60 47 38 35 36 38 42 44 46 47 48 48 49 50 51 47 42 41 35 34 37 37 41 48
64 64 64 63 63 64 63 61 61 60 62 60 59 58 55 55 55 53 56 54 39 36 34 34 37 42 42 44 47 47 48 49 50 53 50 47 44 42 41 34 38 40 37 50
58 59 59 58 59 62 63 60 57 53 50 49 48 49 51 53 53 48 40 37 38 37 37 38 39 41 43 44 47 49 49 50 54 54 55 53 48 46 42 38 38 37 36 52
57 61 62 59 53 50 46 43 43 44 44 44 47 45 44 44 42 37 35 33 34 37 39 41 42 43 44 48 51 50 49 52 52 51 54 49 42 41 38 39 41 39 38 53
43 42 38 34 35 36 38 40 41 41 38 34 36 43 36 30 28 29 34 38 39 39 39 40 41 41 45 48 48 46 50 45 41 38 32 25 28 31 35 38 39 40 40 57
34 34 33 31 33 35 36 32 29 26 31 35 32 28 25 25 26 29 31 33 36 37 37 40 42 45 46 45 43 43 41 34 31 28 21 18 22 24 28 31 35 38 42 55
26 25 24 28 27 25 27 26 27 29 27 25 25 25 25 24 26 28 32 34 35 37 39 40 41 38 37 35 38 37 33 27 26 26 20 12 13 16 20 23 25 28 44 51
32 29 25 17 21 21 19 23 24 23 21 22 20 19 21 24 27 29 29 32 36 36 32 33 31 33 31 32 30 32 25 22 22 22 14 11 11 11 13 18 21 31 43 44
18 18 17 16 16 17 17 17 17 17 18 19 19 19 21 22 26 28 30 32 32 31 30 29 30 28 27 28 25 23 19 18 20 19 10 10 13 7 8 13 22 30 33 37
13 13 13 15 16 17 18 20 20 17 18 18 20 23 25 27 30 32 31 30 29 26 25 26 25 22 22 24 21 22 16 14 15 11 4 5 7 5 6 7 18 25 28 35
16 14 12 12 15 16 17 19 19 20 20 21 23 25 27 28 28 30 30 28 25 24 22 23 21 18 19 20 18 18 11 12 13 9 3 4 5 8 10 11 14 19 24 30
22 20 19 19 16 18 19 19 19 20 19 18 18 22 24 25 28 30 27 25 24 21 20 21 20 16 15 15 12 13 5 6 5 3 3 2 4 6 9 12 17 23 29 37

GFSNGP_500_spd_198.txt.gz
Wind_Speed
67 68 71 73 72 70 67 57 56 40 42 40 41 44 46 46 48 51 54 56 57 59 58 58 59 60 61 63 67 70 71 71 69 69 69 74 78 82 86 83 84 89 91 87
71 70 74 70 65 60 54 54 51 45 44 43 45 50 52 53 54 56 58 60 59 60 59 60 63 66 67 68 71 74 77 79 74 75 76 78 82 85 89 91 93 89 91 87
68 64 61 62 55 56 56 56 53 51 45 47 48 47 51 56 56 56 56 54 55 57 60 62 63 66 69 74 79 79 81 84 82 81 83 86 91 92 92 94 98 98 93 78
58 54 61 48 47 52 58 56 57 53 50 55 53 50 46 49 52 53 51 55 58 59 62 66 69 72 76 81 82 86 83 81 87 87 85 87 90 93 92 92 90 83 77 70
60 61 60 54 51 54 58 52 51 57 54 50 55 59 53 50 49 53 57 61 68 69 71 75 79 78 87 87 78 75 76 80 87 91 94 96 96 92 86 84 80 78 76 73
59 61 61 55 58 59 60 61 63 57 54 55 55 56 57 54 50 54 69 78 79 77 75 67 63 66 78 79 82 85 87 87 86 85 86 87 85 82 81 81 82 81 81 77
61 63 64 57 56 58 59 55 50 47 46 48 49 44 44 53 55 66 73 66 64 71 79 81 80 80 84 83 83 83 86 86 83 87 87 81 80 83 84 87 88 89 87 85
51 56 60 55 50 53 48 50 54 56 54 57 56 52 54 57 61 65 69 73 76 74 75 76 78 80 82 84 86 87 86 83 82 81 80 83 84 87 88 87 83 68 58 55
46 45 43 50 50 51 52 49 49 50 51 53 53 54 57 60 64 65 66 66 69 73 75 78 81 84 85 86 86 86 86 85 83 84 85 87 90 86 80 57 49 47 49 49
55 51 50 51 51 51 49 48 49 49 50 52 53 55 58 61 64 66 67 70 73 76 79 83 86 87 89 87 87 89 87 84 86 86 86 82 80 58 52 50 55 55 54 55
59 54 52 54 51 52 54 56 57 59 59 59 61 64 67 69 70 72 73 74 75 78 78 80 83 84 85 85 83 81 83 84 83 78 77 61 49 47 48 48 52 52 55 56
48 50 58 59 55 55 58 57 56 54 54 61 67 70 71 72 72 72 71 71 72 74 77 78 80 79 79 80 82 82 78 73 73 66 48 46 46 42 48 50 50 52 53 54
58 59 58 60 58 56 60 61 60 60 63 64 66 67 68 69 70 72 72 72 73 73 73 75 77 80 81 78 76 71 69 69 56 48 44 46 45 46 43 44 49 51 50 50
57 59 59 59 61 62 64 65 65 66 68 70 70 69 68 68 68 68 68 70 70 72 74 76 77 77 76 73 66 65 63 50 48 48 50 52 52 51 51 49 46 51 44 43
64 65 64 64 65 65 65 66 67 67 67 67 67 65 64 64 64 65 67 69 71 75 77 78 76 68 63 60 59 54 45 47 50 53 55 56 56 54 53 50 46 42 39 41
65 66 66 67 67 66 65 64 62 62 64 64 65 64 65 68 69 69 72 75 75 77 70 64 61 59 58 55 49 43 46 49 48 48 51 57 59 60 59 55 50 47 41 40
65 66 64 63 62 63 63 64 66 66 66 67 65 65 66 67 69 71 71 71 65 59 57 59 60 56 48 46 44 45 46 49 51 54 57 60 59 61 60 58 55 53 47 43
65 65 65 65 65 65 65 65 65 66 64 63 64 65 64 64 64 62 54 52 54 55 55 50 42 40 43 44 46 48 46 48 51 55 58 54 56 56 51 54 55 53 48 44
61 61 63 64 64 65 64 62 60 61 61 61 61 56 52 50 48 48 48 46 49 48 40 37 37 37 39 42 44 47 49 52 56 58 50 51 47 44 44 44 36 40 43 39
59 59 58 58 56 54 53 55 58 56 49 45 43 42 42 42 39 39 45 41 34 32 34 37 41 45 45 46 47 51 52 55 51 44 46 44 39 40 34 26 21 22 28 34
41 40 43 46 47 45 45 44 43 41 39 36 36 35 32 35 40 35 29 29 31 32 34 35 37 39 42 45 47 45 39 37 39 42 38 33 37 28 24 20 18 21 22 29
28 29 32 34 35 34 33 29 30 31 31 28 28 31 32 28 27 27 27 25 27 29 34 38 40 42 44 39 32 35 34 35 38 35 28 32 25 22 20 18 16 18 23 28
30 34 33 26 22 23 24 28 27 26 27 30 31 28 26 25 23 21 22 26 29 33 36 38 40 38 32 31 32 30 32 31 32 27 24 28 20 21 19 16 16 18 21 23
18 18 25 28 27 26 23 25 27 27 26 26 24 22 22 23 22 23 27 31 34 36 36 35 34 30 27 28 27 26 27 28 23 19 18 16 15 17 15 15 14 16 21 22
14 14 16 21 23 24 22 22 23 23 22 21 21 20 20 21 23 27 28 29 31 33 33 30 30 27 24 23 22 23 23 21 16 14 11 10 10 13 14 15 15 2 10 16
16 15 15 16 18 16 18 22 24 26 24 24 23 21 19 20 22 23 27 30 35 33 27 24 25 22 20 19 19 18 18 12 9 8 7 5 5 8 11 11 11 8 12 12
20 19 22 21 19 18 17 17 19 20 21 20 18 18 18 19 23 24 28 31 29 23 21 21 21 20 17 16 15 11 7 6 9 11 10 6 4 7 11 10 9 8 5 17

GFSNGP_500_spd_201.txt.gz
Wind_Speed
65 65 63 62 60 58 60 60 64 67 67 65 63 62 53 48 43 45 44 42 41 43 45 46 47 49 51 52 56 58 59 59 63 65 69 71 70 73 77 78 81 77 80 76
65 63 62 61 61 61 63 65 65 66 73 65 60 52 49 46 45 44 44 45 46 48 50 51 53 56 57 57 58 58 60 64 67 67 69 72 75 78 79 84 84 83 83 80
68 64 61 66 73 70 65 69 72 74 63 65 57 47 44 48 52 51 48 49 51 52 54 56 57 57 57 58 59 60 63 68 69 69 71 73 78 84 84 84 82 78 82 88
80 77 78 84 80 79 79 76 68 67 63 56 55 50 51 51 52 51 52 51 50 52 56 56 55 54 55 58 61 65 69 71 77 80 81 80 78 76 78 80 80 84 86 81
80 71 73 72 65 64 60 62 60 61 54 51 51 52 53 55 51 52 55 58 58 55 52 54 55 57 61 68 73 74 80 76 70 63 68 71 76 79 82 83 82 82 81 80
80 78 77 67 63 62 69 60 51 53 52 52 50 53 52 55 59 57 54 54 55 57 57 57 58 66 70 80 84 77 72 78 78 77 76 78 82 87 89 88 85 85 80 78
67 68 69 55 60 64 66 54 54 53 54 55 54 53 58 63 62 61 60 59 51 53 59 63 67 77 82 80 74 76 80 80 77 78 82 85 86 86 88 84 82 82 85 87
52 61 65 54 60 59 53 55 55 59 59 57 57 56 55 54 55 56 55 50 46 55 62 71 74 76 76 78 76 77 78 80 80 80 80 84 84 83 84 86 87 88 92 89
49 54 54 62 59 60 54 53 56 59 61 61 61 57 56 57 58 59 58 57 60 63 67 68 69 69 73 76 80 80 78 78 79 84 84 82 84 84 84 85 88 90 82 61
51 50 49 48 42 35 37 41 50 56 56 54 56 56 57 57 57 55 53 55 57 59 62 64 67 71 75 79 80 81 82 82 82 81 82 82 82 83 85 87 84 70 51 44
48 50 51 49 47 49 44 46 48 49 50 51 52 54 55 55 56 57 58 59 58 63 67 72 75 79 82 84 85 83 82 82 83 83 82 82 82 84 81 75 58 47 44 44
54 52 50 51 53 55 53 51 50 52 54 55 57 58 59 58 58 58 58 60 65 69 72 74 76 76 78 78 79 79 80 81 81 81 82 84 81 73 65 49 47 48 49 46
59 61 61 60 54 54 52 53 57 58 59 60 56 56 59 60 62 62 64 68 70 72 73 74 76 77 75 76 76 77 78 79 80 84 79 69 66 52 45 45 49 51 55 54
56 55 52 51 48 52 54 54 54 55 56 55 57 58 60 63 66 68 70 71 70 70 72 73 73 73 72 72 74 77 80 82 76 68 64 57 49 47 50 48 48 50 52 57
49 47 46 46 44 45 49 51 53 54 55 58 59 62 64 65 66 68 68 69 69 69 69 68 67 69 72 76 79 77 70 66 64 60 52 48 49 50 49 49 52 53 54 54
47 49 50 50 51 51 52 55 57 59 60 61 62 62 63 64 65 65 66 66 64 64 67 70 73 75 77 76 71 66 63 59 50 47 48 48 53 53 53 56 58 60 56 57
52 53 54 55 56 56 57 59 61 62 62 62 62 61 61 61 61 62 63 66 67 70 69 72 73 69 61 58 55 52 44 41 43 47 48 51 51 54 58 59 63 59 54 52
55 56 58 60 60 61 61 60 59 60 60 60 62 62 61 61 61 62 64 64 67 66 62 57 54 52 51 53 49 41 42 43 44 46 48 52 57 59 61 61 53 52 50 48
58 59 61 61 61 61 61 60 59 58 60 62 62 61 62 62 61 59 60 59 54 49 47 46 46 47 43 38 39 41 44 46 49 50 52 56 58 52 49 49 43 48 49 42
58 60 61 62 62 62 63 63 62 62 60 60 59 55 54 54 54 52 47 39 38 39 42 43 37 35 35 38 40 42 44 46 48 50 47 43 44 45 42 37 41 36 30 29
49 50 52 54 55 56 57 57 56 55 54 51 49 46 42 37 36 34 33 32 35 36 33 31 33 33 34 38 41 44 46 46 40 37 38 40 41 37 31 34 35 28 21 20
29 30 31 34 37 38 39 40 39 36 34 31 31 31 31 29 27 27 30 31 29 30 31 33 32 35 37 40 41 39 34 31 34 33 35 36 33 29 31 29 27 25 23 16
27 28 29 29 29 27 22 24 24 25 27 25 26 26 26 25 27 29 28 27 28 29 30 32 35 37 37 37 36 31 28 31 29 30 31 27 29 26 20 24 22 23 24 23
16 18 17 17 18 24 26 20 20 21 27 28 24 24 25 28 28 26 26 27 27 26 28 30 32 35 35 32 29 24 27 26 27 27 23 25 23 18 17 19 19 19 20 25
20 15 16 15 16 18 23 26 25 24 24 26 26 26 26 23 23 23 23 22 22 26 30 33 38 33 27 26 23 22 23 21 17 16 15 13 13 14 15 17 19 23 23 17
26 23 18 15 16 18 20 23 25 23 22 24 23 23 23 23 22 20 19 19 23 26 29 30 26 23 23 23 20 19 17 11 8 13 15 15 15 12 11 17 19 23 24 2
25 24 24 21 20 20 21 21 22 23 23 23 22 22 23 23 21 19 18 19 21 23 27 26 24 20 20 20 17 16 13 10 9 11 15 18 14 10 10 13 19 20 22 18

GFSNGP_500_spd_204.txt.gz
Wind_Speed
73 67 69 69 64 60 58 56 57 58 56 56 53 58 63 59 58 62 65 66 64 52 48 41 42 42 43 42 41 41 44 48 50 51 56 62 66 67 70 67 70 71 69 69
71 66 66 68 68 63 60 59 58 59 61 55 55 60 61 58 63 65 67 67 63 54 48 42 44 45 45 45 45 46 49 52 59 57 56 59 62 62 64 70 75 72 76 78
77 73 72 74 69 66 65 63 63 66 64 56 61 65 64 65 70 68 66 65 62 56 51 47 47 48 48 46 46 48 49 50 53 54 56 57 60 63 70 76 78 80 78 62
72 70 71 74 69 71 73 74 73 74 72 69 70 70 74 71 70 66 67 63 60 57 55 51 49 48 47 50 51 50 50 53 56 57 60 67 72 75 77 73 70 72 73 76
68 74 76 77 73 77 80 79 75 77 74 72 73 77 72 70 65 64 58 59 60 60 56 52 52 54 58 59 55 57 55 55 56 69 77 78 78 77 76 73 80 82 83 82
72 74 81 61 63 73 78 81 60 67 68 66 62 65 55 57 58 56 54 56 57 60 63 60 56 56 56 57 60 61 61 62 69 76 81 85 87 87 87 82 81 82 82 78
72 75 75 62 64 69 75 65 68 64 63 61 63 63 63 58 56 56 52 51 53 57 60 59 59 60 62 60 55 59 65 69 73 78 77 79 80 83 80 82 85 85 84 78
60 62 64 63 71 72 68 63 55 56 57 55 50 52 54 58 57 55 53 54 56 56 57 60 62 62 60 57 64 72 76 78 79 81 80 77 77 80 83 86 88 84 84 82
68 66 57 58 60 60 60 56 53 54 55 53 51 48 52 56 57 56 57 59 59 58 59 59 60 60 60 60 66 70 73 75 71 72 75 78 81 83 85 88 87 87 85 85
51 51 52 55 57 54 51 49 50 52 56 54 55 56 54 54 55 54 53 53 53 54 56 59 59 58 60 63 65 68 70 72 74 76 78 81 83 85 86 85 84 84 83 83
43 43 46 45 45 47 48 49 49 48 46 46 46 42 43 45 45 47 48 50 51 54 55 57 61 63 65 67 67 67 70 74 75 77 79 81 83 84 84 82 81 82 80 74
39 43 46 47 48 48 48 50 50 48 45 46 47 47 48 50 51 52 54 57 59 61 62 63 65 65 66 66 69 72 73 76 77 78 81 83 84 83 82 83 81 73 67 53
44 43 47 47 44 43 43 47 49 48 46 50 52 54 54 55 56 58 59 59 60 61 63 64 65 66 68 70 72 74 76 78 80 82 83 82 81 83 86 78 68 56 48 51
45 45 47 45 47 48 49 55 56 54 52 54 52 54 58 58 60 60 60 58 61 62 63 63 66 69 72 74 76 77 79 80 80 79 80 83 85 76 68 60 51 49 49 51
52 52 51 51 50 50 52 52 52 52 52 53 52 54 56 56 56 56 56 57 59 62 66 68 69 70 72 73 74 75 75 76 79 82 79 72 64 60 54 49 47 48 49 53
61 61 55 53 53 52 52 52 50 47 48 47 49 51 52 54 56 57 60 62 65 67 68 69 68 66 66 69 73 76 78 77 71 65 63 58 52 46 44 46 49 50 51 56
55 55 54 52 50 51 53 54 51 50 50 51 51 52 54 57 59 61 64 64 63 62 61 63 65 68 71 73 73 73 68 62 57 54 50 48 47 48 48 50 52 54 56 59
43 45 47 48 49 50 51 52 52 53 54 56 56 58 60 60 60 60 59 61 62 65 66 66 67 68 67 62 59 53 49 49 46 42 41 43 45 46 48 51 55 57 50 46
51 52 53 53 54 54 55 55 56 57 58 58 58 59 60 61 62 63 64 64 64 64 61 59 56 52 45 43 44 44 42 38 39 41 44 47 49 51 53 53 47 46 46 43
52 53 55 56 56 57 58 58 59 60 60 60 59 58 59 58 58 59 55 54 50 47 43 38 36 36 39 40 35 35 37 40 43 46 48 51 48 41 40 43 43 43 42 37
51 53 54 55 55 54 54 55 55 55 55 55 54 52 52 52 51 45 44 38 34 33 32 32 33 33 31 33 36 40 41 43 47 45 39 35 37 37 39 41 40 40 37 35
39 41 42 44 47 49 48 47 47 46 47 47 45 45 39 36 35 32 30 29 29 29 28 28 28 29 32 36 39 41 43 41 34 32 33 34 34 35 37 36 35 29 30 32
24 26 29 33 34 35 34 32 30 31 32 32 31 31 31 29 29 30 29 27 27 27 26 27 30 33 34 36 37 39 38 29 26 28 31 33 33 32 31 29 27 30 30 29
23 22 22 25 26 27 27 29 31 29 26 27 27 27 28 29 29 27 26 25 24 24 26 28 29 31 34 37 38 31 23 22 23 26 26 23 24 22 22 25 29 29 26 26
23 22 21 22 21 21 21 21 22 27 26 25 26 28 30 30 27 24 22 21 22 24 24 25 27 29 33 33 26 21 19 19 21 19 15 17 22 19 21 23 19 21 26 27
26 26 24 24 25 22 21 23 24 26 30 30 28 25 24 25 24 20 20 21 22 20 20 22 25 27 30 27 22 19 19 18 18 14 15 17 19 20 18 15 17 22 28 26
31 29 27 26 26 27 26 25 25 25 26 28 28 26 22 21 21 22 24 23 21 20 20 23 24 25 26 22 20 18 17 15 16 15 12 13 15 17 13 13 18 23 27 28